Weather History for Newark, NJ

Change the Weather History Date:

Wednesday, April 10, 2013

  Actual Average Record
Temperature  
Mean Temperature 65 °F 51 °F  
Max Temperature 74 °F 60 °F 82 °F (1955)
Min Temperature 55 °F 42 °F 28 °F (1997)
Degree Days  
Heating Degree Days 0 14  
Month to date heating degree days 139 159  
Since 1 July heating degree days 4278 4503  
Cooling Degree Days 0 0  
Month to date cooling degree days 3 0  
Year to date cooling degree days 3 1  
Growing Degree Days 14 (Base 50)    
Moisture  
Dew Point 50 °F    
Average Humidity 57    
Maximum Humidity 72    
Minimum Humidity 41    
Precipitation  
Precipitation 0.46 in 0.15 in 2.57 in (1983)
Month to date precipitation 0.47 1.47  
Year to date precipitation 9.81 12.07  
Snow  
Snow 0.00 in 0.00 in 0.30 in (1974)
Month to date snowfall 0.0 0.5  
Since 1 July snowfall 29.5 28.1  
Snow Depth 0.00 in    
Sea Level Pressure  
Sea Level Pressure 29.88 in    
Wind  
Wind Speed 7 mph (East)    
Max Wind Speed 32 mph    
Max Gust Speed 39 mph    
Visibility 9 miles    
Events Rain , Thunderstorm    
T = Trace of Precipitation, MM = Missing Value Source: NWS Daily Summary

Daily Weather History Graph

Daily Weather History Graph

Search for Another Location

Airport:

Trip Planner

Search our weather history database for the weather conditions in past years. The results will help you decide how hot, cold, wet, or windy it might be!

Date:

Astronomy

Apr. 10, 2013 Rise Set
Actual Time 6:25 AM EDT 7:31 PM EDT
Civil Twilight 5:57 AM EDT 7:59 PM EDT
Nautical Twilight 5:23 AM EDT 8:32 PM EDT
Astronomical Twilight 4:49 AM EDT 9:07 PM EDT
Moon 6:19 AM EDT (4/10) 8:04 PM EDT (4/10)
Length of Visible Light 14h 01m
Length of Day
13h 05m
New Moon, 0% of the Moon is Illuminated
Apr 10
New Moon
Apr 18
First Quarter
Apr 25
Full
May 2
Last Quarter
May 9
New

Hourly Weather History & Observations

Time (EDT) Temp. Dew Point Humidity Pressure Visibility Wind Dir Wind Speed Gust Speed Precip Events Conditions
12:51 AM 66.9 °F 46.9 °F 49% 29.88 in 10.0 mi South 8.1 mph - N/A   Partly Cloudy
1:51 AM 69.1 °F 51.1 °F 53% 29.85 in 10.0 mi SSW 8.1 mph - N/A   Scattered Clouds
2:51 AM 68.0 °F 52.0 °F 56% 29.82 in 10.0 mi SSW 12.7 mph - N/A   Mostly Cloudy
3:51 AM 68.0 °F 52.0 °F 56% 29.85 in 10.0 mi NNW 13.8 mph 21.9 mph N/A   Mostly Cloudy
4:51 AM 62.1 °F 44.1 °F 52% 29.87 in 10.0 mi NNE 6.9 mph - N/A   Mostly Cloudy
5:51 AM 57.0 °F 46.0 °F 67% 29.89 in 10.0 mi NNE 8.1 mph - N/A   Mostly Cloudy
6:51 AM 55.9 °F 46.0 °F 69% 29.91 in 10.0 mi North 4.6 mph - N/A   Mostly Cloudy
7:51 AM 60.1 °F 46.9 °F 62% 29.94 in 10.0 mi North 5.8 mph - N/A   Mostly Cloudy
8:51 AM 61.0 °F 46.9 °F 60% 29.94 in 10.0 mi East 3.5 mph - N/A   Mostly Cloudy
9:51 AM 64.9 °F 46.9 °F 52% 29.93 in 10.0 mi ENE 4.6 mph - N/A   Mostly Cloudy
10:51 AM 68.0 °F 46.9 °F 47% 29.92 in 10.0 mi NNE 3.5 mph - N/A   Mostly Cloudy
11:51 AM 71.1 °F 48.9 °F 45% 29.92 in 10.0 mi East 5.8 mph - N/A   Mostly Cloudy
12:51 PM 71.1 °F 48.9 °F 45% 29.91 in 10.0 mi East 6.9 mph - N/A   Scattered Clouds
1:51 PM 73.0 °F 48.9 °F 42% 29.91 in 10.0 mi East 10.4 mph - N/A   Scattered Clouds
2:51 PM 69.1 °F 48.0 °F 47% 29.89 in 10.0 mi SE 11.5 mph - N/A   Mostly Cloudy
3:51 PM 64.9 °F 48.0 °F 54% 29.88 in 10.0 mi SE 12.7 mph 18.4 mph N/A   Mostly Cloudy
4:51 PM 62.1 °F 46.9 °F 58% 29.87 in 10.0 mi SE 12.7 mph 16.1 mph N/A   Mostly Cloudy
5:51 PM 55.9 °F 46.0 °F 69% 29.87 in 10.0 mi SE 8.1 mph 18.4 mph N/A   Mostly Cloudy
6:51 PM 55.9 °F 46.9 °F 72% 29.85 in 10.0 mi ENE 5.8 mph - N/A   Overcast
6:59 PM 55.4 °F 46.4 °F 72% 29.97 in 10.0 mi NNW 31.1 mph 39.1 mph 0.00 in Rain , Thunderstorm Light Thunderstorms and Rain
7:51 PM 59.0 °F 54.0 °F 83% 29.83 in 9.0 mi ESE 12.7 mph 20.7 mph 0.17 in Rain , Thunderstorm Light Thunderstorms and Rain
8:51 PM 57.9 °F 54.0 °F 87% 29.83 in 10.0 mi Calm Calm - 0.05 in Thunderstorm Thunderstorm
9:05 PM 57.2 °F 53.6 °F 88% 29.87 in 10.0 mi SSW 6.9 mph - N/A   Overcast
9:48 PM 55.4 °F 51.8 °F 88% 29.83 in 10.0 mi SE 4.6 mph - N/A Thunderstorm Thunderstorm
9:51 PM 55.9 °F 52.0 °F 87% 29.84 in 10.0 mi East 4.6 mph - N/A Thunderstorm Thunderstorm
10:51 PM 57.2 °F 57.2 °F 100% 29.89 in 3.0 mi Calm Calm - N/A Rain , Thunderstorm Light Thunderstorms and Rain
11:15 PM 57.2 °F 55.4 °F 94% 29.89 in 4.0 mi South 3.5 mph - 0.04 in Rain Light Rain
11:51 PM 57.0 °F 55.9 °F 96% 29.85 in 4.0 mi SSE 5.8 mph - 0.06 in Rain Light Rain